Tracking 22124 objects as of 25-Jan-2021
HD Live streaming from Space Station
objects crossing your sky now

DMSP 5D-2 F15 (USA 147)

Track DMSP 5D-2 F15 (USA 147) now!
10-day predictions
DMSP 5D-2 F15 (USA 147) is classified as:


NORAD ID: 25991
Int'l Code: 1999-067A
Perigee: 837.5 km
Apogee: 851.5 km
Inclination: 99.0 °
Period: 101.7 minutes
Semi major axis: 7215 km
RCS: Unknown
Launch date: December 12, 1999
Source: United States (US)
Launch site: AIR FORCE WESTERN TEST RANGE (AFWTR)

Near-polar orbits; investigate Earth's environment.
aabbcc
Your satellite tracking list
Your tracking list is empty




NASA's NSSDC Master Catalog

Two Line Element Set (TLE):
1 25991U 99067A   21024.96128588 -.00000101  00000-0 -27901-4 0  9990
2 25991  98.9995   4.3386 0009715 186.3686 240.5258 14.16463905 91781
Source of the keplerian elements: McCants